Content
SEND FEEDBACK

Daily
Averages
Monthly
Summary
France

LYON, FRANCE


Home > Europe > France
Elevation: 659 feet     Latitude: 45 43N     Longitude: 004 57E

WEATHER
 
SELECT A DAY
Number of Records: 153,289;   Date Range: 7/1/96 - 7/28/14
 
SHARE

PRINT THIS DATA

[ ← Previous Day ]
WEATHER ALMANAC - MAY 1, 2013
[ Next Day → ]
[ °C ]   °F
Weather ElementAverageHighLow
Temperature56.7 °F64.4 °F (6:30 pm)53.6 °F (7:30 am)
Dewpoint52.2 °F53.6 °F (12:30 am)48.2 °F (1:30 pm)
Humidity85.8 %100 % (7:30 am)63 % (5:30 pm)
Barometer30.03 in30.06 in (12:30 pm)30.01 in (12:30 am)
Wind Speed4.1 mph12.7 mph (1:00 pm)
Weather ElementAverage
Visibility4.3 mi
Wind DirectionSE (130 °)

Weather ElementTotal
Precipitation---
Heating Degree Days6 (Base 65)
Growing Degree Days9 (Base 50)
Averaged from 47 records on May 1, 2013
WEATHER CONDITIONS BREAKOUT
WIND DIRECTION BREAKOUT
WEATHER BY HOUR - MAY 1, 2013
[ °C ]   °F
Local TimeTemperatureDewpointHumidityBarometerVisibilityWind DirectionWind SpeedGust SpeedPrecipitationEventsConditions
12:30 AM55.4 °F53.6 °F94 %30.01 inNNW (340°)1.2 mphOvercast
1:00 AM55.4 °F53.6 °F94 %30.01 in2.5 miNNW (330°)3.5 mphOvercast
1:30 AM55.4 °F53.6 °F94 %30.01 inVariable3.5 mphOvercast
2:00 AM55.4 °F53.6 °F94 %30.01 inVariable2.3 mphOvercast
2:30 AM55.4 °F53.6 °F94 %30.01 inVariable2.3 mphOvercast
3:00 AM55.4 °F53.6 °F94 %30.01 in1.8 miVariable2.3 mphOvercast
3:30 AM55.4 °F53.6 °F94 %30.01 in1.5 miNNW (340°)4.6 mphRainLight Rain
4:00 AM55.4 °F53.6 °F94 %30.01 in1.2 miNorth (360°)3.5 mphOvercast
4:30 AM55.4 °F53.6 °F94 %30.01 in1.2 miVariable3.5 mphOvercast
5:00 AM55.4 °F53.6 °F94 %30.01 in1.4 miNE (40°)2.3 mphOvercast
5:30 AM55.4 °F53.6 °F94 %30.01 in1.1 miVariable2.3 mphOvercast
6:00 AM55.4 °F53.6 °F94 %30.01 in0.8 miVariable3.5 mphOvercast
6:30 AM55.4 °F53.6 °F94 %30.01 in1.2 miNNW (340°)5.8 mphOvercast
7:00 AM55.4 °F53.6 °F94 %30.01 in1.7 miNNW (330°)5.8 mphOvercast
7:30 AM53.6 °F53.6 °F100 %30.01 in1.7 miNNW (340°)6.9 mphOvercast
8:00 AM53.6 °F53.6 °F100 %30.01 in2.5 miNW (320°)4.6 mphOvercast
8:30 AM53.6 °F53.6 °F100 %30.01 inNorth (350°)3.5 mphOvercast
9:00 AM55.4 °F53.6 °F94 %30.01 inNorth (10°)4.6 mphOvercast
9:30 AM55.4 °F53.6 °F94 %30.01 in3.1 miNorth (10°)4.6 mphOvercast
10:00 AM55.4 °F51.8 °F88 %30.01 in3.1 miNorth (360°)4.6 mphOvercast
10:30 AM55.4 °F53.6 °F94 %30.01 in2.5 miNE (40°)3.5 mphOvercast
11:00 AM55.4 °F53.6 °F94 %30.01 inVariable2.3 mphOvercast
11:30 AM57.2 °F53.6 °F88 %30.04 in4.3 miVariable2.3 mphOvercast
12:00 PM55.4 °F53.6 °F94 %30.04 in2.8 miSW (230°)3.5 mphRainLight Rain
12:30 PM55.4 °F53.6 °F94 %30.06 in5.6 miWest (280°)4.6 mphOvercast
1:00 PM53.6 °F50.0 °F88 %30.06 in3.7 miSW (230°)12.7 mphRainRain
1:30 PM53.6 °F48.2 °F82 %30.06 in6.2 miWSW (250°)8.1 mphRainLight Rain
2:00 PM53.6 °F48.2 °F82 %30.06 in6.2 miVariable2.3 mphOvercast
2:30 PM53.6 °F50.0 °F88 %30.06 in6.2 miENE (70°)4.6 mphRainLight Rain
3:00 PM55.4 °F50.0 °F82 %30.04 in6.2 miEast (90°)5.8 mphRainLight Rain
3:30 PM57.2 °F50.0 °F77 %30.04 in6.2 miVariable2.3 mphMostly Cloudy
4:00 PM59.0 °F50.0 °F72 %30.04 in6.2 miVariable3.5 mph
4:30 PM60.8 °F50.0 °F68 %30.04 in6.2 miENE (60°)6.9 mph
5:00 PM60.8 °F50.0 °F68 %30.04 in6.2 miEast (100°)4.6 mph
5:30 PM62.6 °F50.0 °F63 %30.04 in6.2 miVariable3.5 mph
6:00 PM62.6 °F50.0 °F63 %30.04 in6.2 miEast (80°)4.6 mphMostly Cloudy
6:30 PM64.4 °F51.8 °F64 %30.01 in6.2 miVariable3.5 mph
7:00 PM64.4 °F51.8 °F64 %30.01 in6.2 miNE (40°)5.8 mph
7:30 PM62.6 °F51.8 °F68 %30.01 in6.2 miNNE (30°)5.8 mph
8:00 PM60.8 °F51.8 °F72 %30.04 in6.2 miNorth (10°)4.6 mph
8:30 PM60.8 °F51.8 °F72 %30.04 in6.2 miNorth (360°)4.6 mph
9:00 PM59.0 °F51.8 °F77 %30.04 in6.2 miNNE (30°)2.3 mph
9:30 PM57.2 °F51.8 °F82 %30.04 in6.2 miVariable2.3 mph
10:00 PM57.2 °F51.8 °F82 %30.04 in3.7 miNNE (20°)3.5 mph
10:30 PM55.4 °F51.8 °F88 %30.04 in6.2 miVariable3.5 mph
11:00 PM55.4 °F51.8 °F88 %30.06 in6.2 miNorth (360°)4.6 mph
11:30 PM55.4 °F51.8 °F88 %30.06 in6.2 miNorth (360°)3.5 mph
Hourly data recorded from LFLY, located miles away from Lyon, France







STORIES FROM OUR PARTNERS